Time,TemperatureF,DewpointF,PressureIn,WindDirection,WindDirectionDegrees,WindSpeedMPH,WindSpeedGustMPH,Humidity,HourlyPrecipIn,Conditions,Clouds,dailyrainin,SoftwareType,DateUTC
2013-03-17 00:10:00,53.2,49.2,29.97,SW,225,0.0,-999.0,86,-99.99,,,0.00,Acu-Link.com,2013-03-17 04:10:00,
2013-03-17 00:26:00,53.6,49.8,29.96,SW,225,0.0,-999.0,87,-99.99,,,0.00,Acu-Link.com,2013-03-17 04:26:00,
2013-03-17 00:41:00,53.1,49.0,29.96,SW,225,0.0,-999.0,86,-99.99,,,0.00,Acu-Link.com,2013-03-17 04:41:00,
2013-03-17 01:11:00,54.0,50.5,29.96,SW,225,0.0,-999.0,88,-99.99,,,0.00,Acu-Link.com,2013-03-17 05:11:00,
2013-03-17 01:42:00,54.1,50.7,29.95,SW,225,0.0,-999.0,88,-99.99,,,0.00,Acu-Link.com,2013-03-17 05:42:00,
2013-03-17 01:57:00,53.8,50.6,29.95,SW,225,0.0,-999.0,89,-99.99,,,0.00,Acu-Link.com,2013-03-17 05:57:00,
2013-03-17 02:12:00,53.1,49.9,29.95,SW,225,0.0,-999.0,89,-99.99,,,0.00,Acu-Link.com,2013-03-17 06:12:00,
2013-03-17 02:27:00,52.3,49.5,29.95,SW,225,0.0,-999.0,90,-99.99,,,0.00,Acu-Link.com,2013-03-17 06:27:00,
2013-03-17 02:43:00,52.0,50.3,29.94,SW,225,0.0,-999.0,94,-99.99,,,0.00,Acu-Link.com,2013-03-17 06:43:00,
2013-03-17 02:58:00,51.3,49.0,29.94,SW,225,0.0,-999.0,92,-99.99,,,0.00,Acu-Link.com,2013-03-17 06:58:00,
2013-03-17 03:13:00,50.5,48.6,29.93,SW,225,0.0,-999.0,93,-99.99,,,0.00,Acu-Link.com,2013-03-17 07:13:00,
2013-03-17 03:28:00,50.0,48.9,29.93,SW,225,0.0,-999.0,96,-99.99,,,0.00,Acu-Link.com,2013-03-17 07:28:00,
2013-03-17 03:43:00,49.8,49.0,29.93,SW,225,0.0,-999.0,97,-99.99,,,0.00,Acu-Link.com,2013-03-17 07:43:00,
2013-03-17 03:59:00,49.5,48.9,29.93,SW,225,0.0,-999.0,98,-99.99,,,0.00,Acu-Link.com,2013-03-17 07:59:00,
2013-03-17 04:14:00,49.5,49.2,29.92,SW,225,1.6,-999.0,99,-99.99,,,0.00,Acu-Link.com,2013-03-17 08:14:00,
2013-03-17 04:29:00,49.5,49.2,29.92,SW,225,0.0,-999.0,99,-99.99,,,0.00,Acu-Link.com,2013-03-17 08:29:00,
2013-03-17 04:44:00,49.6,49.4,29.91,SW,225,0.0,-999.0,99,-99.99,,,0.00,Acu-Link.com,2013-03-17 08:44:00,
2013-03-17 04:59:00,49.5,49.2,29.91,SW,225,1.6,-999.0,99,-99.99,,,0.00,Acu-Link.com,2013-03-17 08:59:00,
2013-03-17 05:14:00,50.0,49.7,29.91,SW,225,0.0,-999.0,99,-99.99,,,0.00,Acu-Link.com,2013-03-17 09:14:00,
2013-03-17 05:30:00,49.8,49.6,29.91,SW,225,1.1,-999.0,99,-99.99,,,0.00,Acu-Link.com,2013-03-17 09:30:00,
2013-03-17 05:45:00,49.6,49.4,29.91,SW,225,0.0,-999.0,99,-99.99,,,0.00,Acu-Link.com,2013-03-17 09:45:00,
2013-03-17 06:00:00,49.6,49.4,29.91,ESE,112,1.6,-999.0,99,-99.99,,,0.00,Acu-Link.com,2013-03-17 10:00:00,
2013-03-17 06:15:00,51.3,51.0,29.90,NE,45,1.1,-999.0,99,-99.99,,,0.00,Acu-Link.com,2013-03-17 10:15:00,
2013-03-17 06:30:00,51.1,50.5,29.91,NE,45,1.6,-999.0,98,-99.99,,,0.00,Acu-Link.com,2013-03-17 10:30:00,
2013-03-17 06:46:00,50.4,50.1,29.92,NE,45,0.0,-999.0,99,-99.99,,,0.00,Acu-Link.com,2013-03-17 10:46:00,
2013-03-17 07:16:00,49.8,49.6,29.94,NE,45,2.2,-999.0,99,-99.99,,,0.00,Acu-Link.com,2013-03-17 11:16:00,
2013-03-17 07:31:00,50.2,49.9,29.94,NE,45,1.1,-999.0,99,-99.99,,,0.00,Acu-Link.com,2013-03-17 11:31:00,
2013-03-17 07:46:00,51.3,51.0,29.95,NE,45,1.6,-999.0,99,-99.99,,,0.00,Acu-Link.com,2013-03-17 11:46:00,
2013-03-17 08:02:00,52.5,51.7,29.95,NE,45,1.6,-999.0,97,-99.99,,,0.00,Acu-Link.com,2013-03-17 12:02:00,
2013-03-17 08:17:00,53.2,52.1,29.96,NE,45,0.0,-999.0,96,-99.99,,,0.00,Acu-Link.com,2013-03-17 12:17:00,
2013-03-17 08:32:00,53.4,52.0,29.96,NE,45,3.8,-999.0,95,-99.99,,,0.00,Acu-Link.com,2013-03-17 12:32:00,
2013-03-17 08:47:00,58.3,53.8,29.97,East,90,4.3,-999.0,85,-99.99,,,0.00,Acu-Link.com,2013-03-17 12:47:00,
2013-03-17 09:02:00,59.4,54.5,29.97,ENE,67,2.7,-999.0,84,-99.99,,,0.00,Acu-Link.com,2013-03-17 13:02:00,
2013-03-17 09:18:00,66.6,56.9,29.96,ESE,112,2.7,-999.0,71,-99.99,,,0.00,Acu-Link.com,2013-03-17 13:18:00,
2013-03-17 09:33:00,64.4,55.9,29.97,ENE,67,3.1,-999.0,74,-99.99,,,0.00,Acu-Link.com,2013-03-17 13:33:00,
2013-03-17 09:48:00,66.7,57.4,29.96,ENE,67,3.8,-999.0,72,-99.99,,,0.00,Acu-Link.com,2013-03-17 13:48:00,
2013-03-17 10:03:00,71.6,58.8,29.96,ESE,112,4.3,-999.0,64,-99.99,,,0.00,Acu-Link.com,2013-03-17 14:03:00,
2013-03-17 10:19:00,71.6,58.3,29.97,ESE,112,3.8,-999.0,63,-99.99,,,0.00,Acu-Link.com,2013-03-17 14:19:00,
2013-03-17 10:34:00,73.6,59.7,29.97,ESE,112,5.8,-999.0,62,-99.99,,,0.00,Acu-Link.com,2013-03-17 14:34:00,
2013-03-17 10:49:00,74.8,60.0,29.97,ESE,112,4.7,-999.0,60,-99.99,,,0.00,Acu-Link.com,2013-03-17 14:49:00,
2013-03-17 11:04:00,75.4,60.0,29.98,East,90,2.7,-999.0,59,-99.99,,,0.00,Acu-Link.com,2013-03-17 15:04:00,
2013-03-17 11:19:00,73.4,59.6,29.97,ESE,112,5.1,-999.0,62,-99.99,,,0.00,Acu-Link.com,2013-03-17 15:19:00,
2013-03-17 11:35:00,77.4,60.4,29.97,SE,135,5.8,-999.0,56,-99.99,,,0.00,Acu-Link.com,2013-03-17 15:35:00,
2013-03-17 11:50:00,77.4,60.4,29.96,South,180,4.7,-999.0,56,-99.99,,,0.00,Acu-Link.com,2013-03-17 15:50:00,
2013-03-17 12:05:00,75.6,60.2,29.97,NE,45,6.3,-999.0,59,-99.99,,,0.00,Acu-Link.com,2013-03-17 16:05:00,
2013-03-17 12:20:00,76.1,59.7,29.96,SE,135,3.8,-999.0,57,-99.99,,,0.00,Acu-Link.com,2013-03-17 16:20:00,
2013-03-17 12:35:00,79.9,58.4,29.95,SW,225,1.1,-999.0,48,-99.99,,,0.00,Acu-Link.com,2013-03-17 16:35:00,
2013-03-17 12:51:00,77.0,59.1,29.95,SE,135,2.7,-999.0,54,-99.99,,,0.00,Acu-Link.com,2013-03-17 16:51:00,
2013-03-17 13:21:00,82.8,59.2,29.93,SSE,157,5.8,-999.0,45,-99.99,,,0.00,Acu-Link.com,2013-03-17 17:21:00,
2013-03-17 13:36:00,80.2,57.6,29.94,South,180,4.7,-999.0,46,-99.99,,,0.00,Acu-Link.com,2013-03-17 17:36:00,
2013-03-17 13:51:00,79.9,57.2,29.92,ESE,112,4.3,-999.0,46,-99.99,,,0.00,Acu-Link.com,2013-03-17 17:51:00,
2013-03-17 14:07:00,78.8,58.0,29.91,ESE,112,7.8,-999.0,49,-99.99,,,0.00,Acu-Link.com,2013-03-17 18:07:00,
2013-03-17 14:22:00,82.0,58.6,29.91,ESE,112,2.2,-999.0,45,-99.99,,,0.00,Acu-Link.com,2013-03-17 18:22:00,
2013-03-17 14:37:00,79.5,58.7,29.89,East,90,3.8,-999.0,49,-99.99,,,0.00,Acu-Link.com,2013-03-17 18:37:00,
2013-03-17 14:52:00,81.0,58.2,29.88,ESE,112,3.8,-999.0,46,-99.99,,,0.00,Acu-Link.com,2013-03-17 18:52:00,
2013-03-17 15:08:00,79.7,58.3,29.88,WNW,292,1.6,-999.0,48,-99.99,,,0.00,Acu-Link.com,2013-03-17 19:08:00,
2013-03-17 15:23:00,81.0,58.2,29.87,SW,225,1.6,-999.0,46,-99.99,,,0.00,Acu-Link.com,2013-03-17 19:23:00,
2013-03-17 15:38:00,81.3,57.9,29.87,South,180,4.3,-999.0,45,-99.99,,,0.00,Acu-Link.com,2013-03-17 19:38:00,
2013-03-17 15:53:00,80.2,58.7,29.87,SW,225,6.3,-999.0,48,-99.99,,,0.00,Acu-Link.com,2013-03-17 19:53:00,
2013-03-17 16:08:00,80.2,58.7,29.86,SW,225,5.8,-999.0,48,-99.99,,,0.00,Acu-Link.com,2013-03-17 20:08:00,
2013-03-17 16:24:00,81.0,58.8,29.86,SW,225,8.9,-999.0,47,-99.99,,,0.00,Acu-Link.com,2013-03-17 20:24:00,
2013-03-17 16:39:00,80.8,58.6,29.86,SSW,202,6.3,-999.0,47,-99.99,,,0.00,Acu-Link.com,2013-03-17 20:39:00,
2013-03-17 16:54:00,79.3,57.9,29.86,SW,225,6.3,-999.0,48,-99.99,,,0.00,Acu-Link.com,2013-03-17 20:54:00,
2013-03-17 17:09:00,77.7,57.6,29.86,West,270,4.3,-999.0,50,-99.99,,,0.00,Acu-Link.com,2013-03-17 21:09:00,
2013-03-17 17:24:00,77.0,58.0,29.85,SSW,202,5.8,-999.0,52,-99.99,,,0.00,Acu-Link.com,2013-03-17 21:24:00,
2013-03-17 17:40:00,77.7,58.1,29.86,WSW,247,4.7,-999.0,51,-99.99,,,0.00,Acu-Link.com,2013-03-17 21:40:00,
2013-03-17 17:55:00,77.5,58.5,29.86,SW,225,3.1,-999.0,52,-99.99,,,0.00,Acu-Link.com,2013-03-17 21:55:00,
2013-03-17 18:10:00,77.7,58.1,29.86,SW,225,2.7,-999.0,51,-99.99,,,0.00,Acu-Link.com,2013-03-17 22:10:00,
2013-03-17 18:25:00,76.5,58.0,29.84,SW,225,3.1,-999.0,53,-99.99,,,0.00,Acu-Link.com,2013-03-17 22:25:00,
2013-03-17 18:40:00,76.3,58.4,29.85,SW,225,2.7,-999.0,54,-99.99,,,0.00,Acu-Link.com,2013-03-17 22:40:00,
2013-03-17 18:56:00,75.4,58.6,29.85,WSW,247,4.7,-999.0,56,-99.99,,,0.00,Acu-Link.com,2013-03-17 22:56:00,
2013-03-17 19:26:00,74.3,58.6,29.85,SW,225,1.6,-999.0,58,-99.99,,,0.00,Acu-Link.com,2013-03-17 23:26:00,
2013-03-17 19:41:00,73.0,58.3,29.86,WSW,247,1.6,-999.0,60,-99.99,,,0.00,Acu-Link.com,2013-03-17 23:41:00,
2013-03-17 19:57:00,71.1,57.8,29.86,SSW,202,1.6,-999.0,63,-99.99,,,0.00,Acu-Link.com,2013-03-17 23:57:00,
2013-03-17 20:27:00,69.4,58.0,29.87,West,270,2.2,-999.0,67,-99.99,,,0.00,Acu-Link.com,2013-03-18 00:27:00,
2013-03-17 20:42:00,68.9,57.5,29.87,West,270,0.0,-999.0,67,-99.99,,,0.00,Acu-Link.com,2013-03-18 00:42:00,
2013-03-17 20:57:00,68.0,57.4,29.87,West,270,0.0,-999.0,69,-99.99,,,0.00,Acu-Link.com,2013-03-18 00:57:00,
2013-03-17 21:13:00,67.1,57.0,29.88,West,270,0.0,-999.0,70,-99.99,,,0.00,Acu-Link.com,2013-03-18 01:13:00,
2013-03-17 21:28:00,66.4,57.8,29.88,West,270,1.1,-999.0,74,-99.99,,,0.00,Acu-Link.com,2013-03-18 01:28:00,
2013-03-17 21:43:00,65.8,57.7,29.89,West,270,0.0,-999.0,75,-99.99,,,0.00,Acu-Link.com,2013-03-18 01:43:00,
2013-03-17 21:58:00,65.1,58.1,29.89,West,270,0.0,-999.0,78,-99.99,,,0.00,Acu-Link.com,2013-03-18 01:58:00,
2013-03-17 22:13:00,64.4,57.4,29.89,West,270,0.0,-999.0,78,-99.99,,,0.00,Acu-Link.com,2013-03-18 02:13:00,
2013-03-17 22:29:00,63.7,57.4,29.89,West,270,0.0,-999.0,80,-99.99,,,0.00,Acu-Link.com,2013-03-18 02:29:00,
2013-03-17 22:44:00,63.3,58.1,29.89,West,270,0.0,-999.0,83,-99.99,,,0.00,Acu-Link.com,2013-03-18 02:44:00,
2013-03-17 22:59:00,63.0,58.4,29.90,ESE,112,1.6,-999.0,85,-99.99,,,0.00,Acu-Link.com,2013-03-18 02:59:00,
2013-03-17 23:14:00,63.1,58.6,29.89,East,90,1.6,-999.0,85,-99.99,,,0.00,Acu-Link.com,2013-03-18 03:14:00,
2013-03-17 23:29:00,63.1,58.6,29.89,East,90,1.6,-999.0,85,-99.99,,,0.00,Acu-Link.com,2013-03-18 03:29:00,
2013-03-17 23:45:00,63.1,58.9,29.90,East,90,1.6,-999.0,86,-99.99,,,0.00,Acu-Link.com,2013-03-18 03:45:00,